Location: Weatherford
(35.5260°N, 98.7070°W)
Time: 01:10:37
(UTC-05:00)

Amateur Radio Satellites - All Passes

Search period start: 01 July 2016 00:40
Search period end: 02 July 2016 00:40
Location: Weatherford, 35.5260°N, 98.7070°W

Satellite Date Start Highest point End Downlink Frequencies (MHz)
Time Altitude Azimuth
50 SAT 01 Jul 00:49:51 00:53:27 49° 260° (W) 00:57:05 437.505
ANTELSAT 01 Jul 00:51:13 00:55:00 25° 290° (WNW) 00:58:47 437.575/2403.000
SPROUT 01 Jul 00:53:37 00:57:45 55° 75° (ENE) 01:01:55 437.525
BUGSAT 1 01 Jul 00:55:37 00:58:50 22° 96° (E) 01:02:03 437.445
UKube-1 01 Jul 00:57:00 01:01:18 86° 254° (WSW) 01:05:38 .
JAS-2 01 Jul 00:58:37 01:00:55 13° 90° (E) 01:03:11 435.910
PCSat 01 Jul 01:08:51 01:12:09 17° 104° (ESE) 01:15:27 145.827
AISAT 01 Jul 01:11:43 01:15:41 33° 262° (W) 01:19:40 437.250
ESTCUBE 1 01 Jul 01:19:23 01:22:36 19° 266° (W) 01:25:49 437.505/2401.250
DX 1 01 Jul 01:22:23 01:26:19 33° 262° (W) 01:30:16 434.975-435.025
NANOSAT C BR1 01 Jul 01:26:04 01:30:16 59° 285° (WNW) 01:34:26 145.865
QB50P1 01 Jul 01:30:41 01:34:48 49° 286° (WNW) 01:38:55 145.935-145.965
POPSAT HIP 1 01 Jul 01:34:12 01:38:17 45° 286° (WNW) 01:42:21 437.405
Cosmos 2491 01 Jul 01:42:58 01:51:45 80° 277° (W) 02:00:32 435.465 / 435.565
DUCHIFAT 1 01 Jul 01:45:35 01:49:28 37° 288° (WNW) 01:53:23 145.980
QB50P2 01 Jul 01:47:31 01:51:14 30° 289° (WNW) 01:54:57 145.880/145.840
POLYITAN 1 01 Jul 01:50:10 01:53:52 29° 289° (WNW) 01:57:34 437.675
CUBEBUG 1 01 Jul 01:54:58 01:56:02 11° 268° (W) 01:57:06 437.445
SO-50 01 Jul 01:57:51 02:02:07 38° 246° (WSW) 02:06:16 436.795
Cosmos 2504 01 Jul 02:00:38 02:09:31 76° 82° (E) 02:17:53 435.465 / 435.565
TISAT 1 01 Jul 02:04:06 02:08:15 89° 262° (W) 02:12:26 437.305
O/OREOS (USA 219) 01 Jul 02:08:45 02:12:03 20° 101° (E) 02:15:21 437.305
SWISSCUBE 01 Jul 02:11:37 02:15:16 22° 68° (ENE) 02:18:55 437.505
BEESAT 3 01 Jul 02:15:44 02:19:28 45° 115° (ESE) 02:23:14 437.485
BUGSAT 1 01 Jul 02:30:44 02:34:06 25° 289° (WNW) 02:37:30 437.445
YUBILEINY 01 Jul 02:35:01 02:41:15 22° 279° (W) 02:47:29 435.215
BEESAT 01 Jul 02:35:47 02:40:07 35° 71° (ENE) 02:44:27 436.000
ITUPSAT 1 01 Jul 02:38:34 02:42:57 37° 71° (ENE) 02:47:22 437.325
JAS-2 01 Jul 02:41:11 02:46:34 59° 287° (WNW) 02:51:38 435.910
PCSat 01 Jul 02:49:42 02:55:01 56° 299° (WNW) 03:00:22 145.827
BEESAT 2 01 Jul 02:58:45 03:02:42 79° 118° (ESE) 03:06:41 435.950
Oscar 19 01 Jul 03:03:26 03:08:35 83° 103° (ESE) 03:13:42 437.125/150
ITAMSAT 1 01 Jul 03:32:52 03:36:48 21° 95° (E) 03:40:43 435.822/435.867
AO-7 01 Jul 03:38:28 03:41:50 13° 91° (E) 03:45:12 29.400- 29.500
Gurwin Techsat 1B 01 Jul 03:42:07 03:47:28 82° 103° (ESE) 03:52:47 435.225
Cosmos 2491 01 Jul 03:46:05 03:49:59 13° 296° (WNW) 03:53:53 435.465 / 435.565
O/OREOS (USA 219) 01 Jul 03:47:14 03:51:13 30° 296° (WNW) 03:55:12 437.305
SWISSCUBE 01 Jul 03:48:30 03:52:49 34° 262° (W) 03:57:10 437.505
BEESAT 3 01 Jul 03:55:11 03:57:22 14° 311° (NW) 03:59:34 437.485
Cosmos 2504 01 Jul 03:56:02 04:01:47 20° 280° (W) 04:07:23 435.465 / 435.565
AIST 2 01 Jul 04:05:06 04:07:53 18° 110° (ESE) 04:10:42 435.215
BEESAT 01 Jul 04:14:24 04:17:56 20° 265° (W) 04:21:29 436.000
KKS-1 01 Jul 04:17:19 04:21:32 47° 73° (ENE) 04:25:47 437.445
ITUPSAT 1 01 Jul 04:17:24 04:20:51 20° 265° (W) 04:24:21 437.325
MOZHAYETS 4 01 Jul 04:27:27 04:31:57 55° 74° (ENE) 04:36:30
GONETS M04 01 Jul 04:40:40 04:45:32 16° 65° (ENE) 04:50:21
STARS 01 Jul 04:41:57 04:46:03 43° 73° (ENE) 04:50:11 437.465
Oscar 19 01 Jul 04:46:12 04:47:09 10° 298° (WNW) 04:48:05 437.125/150
AIST 1 01 Jul 04:47:59 04:52:13 64° 82° (E) 04:56:27
PHONESAT 2.4 01 Jul 05:00:20 05:02:07 14° 144° (SE) 05:03:53 2401.200-2431.200
ITAMSAT 1 01 Jul 05:11:31 05:16:21 39° 289° (WNW) 05:21:10 435.822/435.867
Gurwin Techsat 1B 01 Jul 05:25:04 05:26:39 11° 299° (WNW) 05:28:14 435.225
AO-7 01 Jul 05:27:12 05:35:37 81° 107° (ESE) 05:43:59 29.400- 29.500
HORYU 2 01 Jul 05:37:13 05:40:34 20° 95° (E) 05:43:54 437.375
AIST 2 01 Jul 05:42:21 05:46:06 33° 305° (NW) 05:49:52 435.215
AO-85 01 Jul 05:49:50 05:52:47 17° 47° (NE) 05:55:34 145.980
KKS-1 01 Jul 05:56:19 05:58:19 13° 267° (W) 06:00:20 437.445
CUBESAT XI-V 01 Jul 06:02:34 06:07:14 66° 75° (ENE) 06:11:54 437.345
MOZHAYETS 4 01 Jul 06:07:39 06:09:24 12° 269° (W) 06:11:11
STARS 01 Jul 06:20:22 06:22:35 14° 267° (W) 06:24:48 437.465
Cosmos 2499 01 Jul 06:28:41 06:37:14 57° 79° (E) 06:45:09 435.465 / 435.565
GONETS M04 01 Jul 06:34:44 06:43:31 89° 81° (E) 06:52:19
CUTE-I 01 Jul 06:35:16 06:37:16 12° 91° (E) 06:39:15 437.470
PHONESAT 2.4 01 Jul 06:35:20 06:38:24 90° 303° (WNW) 06:41:28 2401.200-2431.200
NOAA 15 01 Jul 06:52:00 06:56:21 26° 96° (E) 07:00:40 137.62
LilacSat-2 01 Jul 06:55:14 06:57:32 15° 94° (E) 06:59:51 437.200
STRAND 1 01 Jul 06:56:42 07:00:03 18° 65° (ENE) 07:03:25 437.568
BRITE-PL 01 Jul 07:05:27 07:09:11 32° 98° (E) 07:13:01 437.365/2234.400
HORYU 2 01 Jul 07:13:09 07:17:07 31° 289° (WNW) 07:21:04 437.375
AO-7 01 Jul 07:21:38 07:27:25 21° 304° (NW) 07:33:12 29.400- 29.500
GOMX 1 01 Jul 07:24:21 07:27:48 23° 96° (E) 07:31:22 467.674
CUSAT 1 01 Jul 07:27:11 07:34:31 46° 94° (E) 07:40:44 437.405
AO-85 01 Jul 07:29:22 07:33:30 43° 246° (WSW) 07:37:19 145.980
Cubesat XI-IV 01 Jul 07:39:01 07:44:18 55° 101° (E) 07:49:33 437.490
NOAA 18 01 Jul 07:57:05 08:02:40 87° 103° (ESE) 08:08:14 137.9125
ISS 01 Jul 08:04:31 08:07:45 70° 136° (SE) 08:10:59 145.825
DOVE 4 01 Jul 08:09:21 08:13:24 34° 98° (E) 08:17:39 437.250
CUTE-I 01 Jul 08:12:24 08:17:46 71° 285° (WNW) 08:23:05 437.470
PHONESAT 2.4 01 Jul 08:12:25 08:15:13 32° 354° (N) 08:18:02 2401.200-2431.200
DANDE 01 Jul 08:15:38 08:23:49 57° 94° (E) 08:31:22 436.750
Cosmos 2499 01 Jul 08:22:53 08:29:39 27° 277° (W) 08:36:06 435.465 / 435.565
LilacSat-2 01 Jul 08:28:26 08:31:53 30° 287° (WNW) 08:35:18 437.200
NOAA 15 01 Jul 08:31:28 08:36:05 33° 291° (WNW) 08:40:43 137.62
STRAND 1 01 Jul 08:33:50 08:38:47 49° 260° (W) 08:43:48 437.568
GONETS M04 01 Jul 08:34:34 08:39:03 15° 282° (WNW) 08:43:33
CINEMA 3 01 Jul 08:43:43 08:47:30 24° 96° (E) 08:51:23 145.822/145.860
BRITE-PL 01 Jul 08:44:49 08:47:28 17° 291° (WNW) 08:50:10 437.365/2234.400
CANX-2 01 Jul 08:47:43 08:51:09 23° 95° (E) 08:54:33 2200.000
GOMX 1 01 Jul 09:02:19 09:05:50 25° 289° (WNW) 09:09:28 467.674
SEEDS 01 Jul 09:05:39 09:08:59 22° 95° (E) 09:12:18 437.485
CUTE 1.7 + AOD 2 01 Jul 09:06:45 09:10:38 33° 97° (E) 09:14:29 437.475
CUSAT 1 01 Jul 09:10:02 09:16:33 30° 284° (WNW) 09:22:12 437.405
Cubesat XI-IV 01 Jul 09:20:28 09:23:52 17° 296° (WNW) 09:27:16 437.490
PRISM 01 Jul 09:22:24 09:26:33 85° 80° (E) 09:30:42 437.425
HO-68 01 Jul 09:25:37 09:32:44 59° 102° (ESE) 09:39:48 435.675
AAUSAT CUBESAT 2 01 Jul 09:35:55 09:39:29 27° 96° (E) 09:43:01 437.432
M-CUBED/EXP-1 PRIME 01 Jul 09:40:08 09:41:53 12° 99° (E) 09:43:39 437.505
NOAA 18 01 Jul 09:40:44 09:42:31 12° 300° (WNW) 09:44:18 137.9125
ISS 01 Jul 09:42:36 09:44:30 14° 333° (NNW) 09:46:24 145.825
DOVE 4 01 Jul 09:47:44 09:50:53 19° 290° (WNW) 09:54:09 437.250
PHONESAT 2.4 01 Jul 09:49:19 09:52:13 37° 11° (N) 09:55:06 2401.200-2431.200
CUBEBUG 2 01 Jul 09:56:53 10:01:22 45° 99° (E) 10:05:54 437.445
DANDE 01 Jul 09:59:46 10:06:50 30° 287° (WNW) 10:13:25 436.750
ZACube-1 01 Jul 10:10:18 10:14:12 27° 96° (E) 10:18:06 437.345
ANTELSAT 01 Jul 10:11:23 10:14:10 17° 67° (ENE) 10:16:59 437.575/2403.000
COMPASS 1 01 Jul 10:12:35 10:16:47 78° 283° (WNW) 10:20:55 437.405
Oscar 11 01 Jul 10:14:15 10:18:06 30° 97° (E) 10:21:54 145.826/435.025
CINEMA 3 01 Jul 10:20:33 10:24:34 30° 288° (WNW) 10:28:44 145.822/145.860
CANX-2 01 Jul 10:23:25 10:26:54 25° 290° (WNW) 10:30:21 2200.000
FUNcube-1 01 Jul 10:25:52 10:30:08 38° 98° (E) 10:34:24 145.935
AUBIESAT-1 01 Jul 10:30:34 10:34:28 41° 104° (ESE) 10:38:36 437.475
BEESAT 3 01 Jul 10:37:15 10:38:53 12° 47° (NE) 10:40:31 437.485
UWE-3 01 Jul 10:37:42 10:42:21 88° 98° (E) 10:47:03 435.000/436.395/437.385
SEEDS 01 Jul 10:41:09 10:44:35 25° 290° (WNW) 10:48:00 437.485
CUTE 1.7 + AOD 2 01 Jul 10:43:22 10:46:11 17° 292° (WNW) 10:49:00 437.475
DELFI C3 01 Jul 10:56:54 11:00:40 40° 99° (E) 11:04:23 145.870
HUMSAT D 01 Jul 10:57:13 11:00:16 19° 94° (E) 11:03:18 437.325/437.525
TIGRISAT 01 Jul 11:00:21 11:04:34 58° 75° (ENE) 11:08:53 435.000
RS-15 01 Jul 11:04:15 11:14:13 38° 106° (ESE) 11:24:37 29.354- 29.394
QB50P2 01 Jul 11:04:50 11:05:20 10° 65° (ENE) 11:05:48 145.880/145.840
UNISAT 6 01 Jul 11:06:29 11:10:46 75° 76° (ENE) 11:15:10 437.425
POLYITAN 1 01 Jul 11:07:11 11:07:57 10° 65° (ENE) 11:08:42 437.675
AAUSAT CUBESAT 2 01 Jul 11:11:45 11:14:46 20° 291° (WNW) 11:17:46 437.432
M-CUBED/EXP-1 PRIME 01 Jul 11:12:35 11:16:29 48° 290° (WNW) 11:20:41 437.505
HO-68 01 Jul 11:14:22 11:19:54 25° 298° (WNW) 11:25:25 435.675
BEESAT 2 01 Jul 11:20:17 11:23:10 19° 51° (NE) 11:26:02 435.950
PHONESAT 2.4 01 Jul 11:25:53 11:28:54 56° 206° (SSW) 11:31:55 2401.200-2431.200
CUBEBUG 2 01 Jul 11:34:42 11:37:36 16° 293° (WNW) 11:40:31 437.445
PCSat 01 Jul 11:40:27 11:45:50 60° 61° (ENE) 11:51:10 145.827
YUBILEINY 01 Jul 11:42:37 11:46:30 14° 77° (ENE) 11:50:22 435.215
BUGSAT 1 01 Jul 11:45:18 11:45:48 10° 65° (ENE) 11:46:16 437.445
ANTELSAT 01 Jul 11:46:35 11:50:33 36° 262° (W) 11:54:37 437.575/2403.000
ZACube-1 01 Jul 11:46:38 11:50:20 25° 290° (WNW) 11:54:03 437.345
Oscar 11 01 Jul 11:50:50 11:54:00 20° 291° (WNW) 11:57:09 145.826/435.025
Cosmos 2491 01 Jul 11:57:22 12:05:37 45° 77° (ENE) 12:13:49 435.465 / 435.565
FUNcube-1 01 Jul 12:02:58 12:06:02 18° 292° (WNW) 12:09:08 145.935
AUBIESAT-1 01 Jul 12:06:12 12:08:39 16° 296° (WNW) 12:11:11 437.475
CUBEBUG 1 01 Jul 12:08:44 12:10:31 12° 93° (E) 12:12:17 437.445
BEESAT 3 01 Jul 12:13:01 12:16:55 57° 244° (WSW) 12:20:45 437.485
NANOSAT C BR1 01 Jul 12:14:53 12:19:00 66° 75° (ENE) 12:23:09 145.865
QB50P1 01 Jul 12:19:41 12:23:52 80° 77° (ENE) 12:28:05 145.935-145.965
O/OREOS (USA 219) 01 Jul 12:20:52 12:24:34 25° 63° (ENE) 12:28:16 437.305
50 SAT 01 Jul 12:22:48 12:25:07 16° 94° (E) 12:27:25 437.505
POPSAT HIP 1 01 Jul 12:23:13 12:27:24 87° 72° (ENE) 12:31:36 437.405
VELOX 1 01 Jul 12:24:11 12:27:07 17° 95° (E) 12:30:03 145.980
HUMSAT D 01 Jul 12:32:06 12:35:55 31° 288° (WNW) 12:39:41 437.325/437.525
DELFI C3 01 Jul 12:33:20 12:35:07 13° 293° (WNW) 12:36:54 145.870
DUCHIFAT 1 01 Jul 12:33:52 12:38:00 77° 257° (WSW) 12:42:12 145.980
QB50P2 01 Jul 12:36:27 12:40:34 59° 259° (W) 12:44:44 145.880/145.840
POLYITAN 1 01 Jul 12:39:06 12:43:12 57° 260° (W) 12:47:21 437.675
SPROUT 01 Jul 12:44:33 12:46:13 12° 92° (E) 12:47:53 437.525
JAS-2 01 Jul 12:47:52 12:55:00 46° 71° (ENE) 13:01:31 435.910
UKube-1 01 Jul 12:47:58 12:51:04 19° 95° (E) 12:54:09 .
BEESAT 2 01 Jul 12:57:28 13:01:03 32° 247° (WSW) 13:04:38 435.950
AISAT 01 Jul 13:04:17 13:08:36 55° 101° (E) 13:12:55 437.250
DX 1 01 Jul 13:13:01 13:17:14 49° 100° (E) 13:21:26 434.975-435.025
ESTCUBE 1 01 Jul 13:13:17 13:17:46 71° 284° (WNW) 13:22:13 437.505/2401.250
RS-15 01 Jul 13:14:54 13:26:03 58° 306° (NW) 13:37:54 29.354- 29.394
BUGSAT 1 01 Jul 13:16:46 13:20:41 52° 260° (W) 13:24:36 437.445
Gurwin Techsat 1B 01 Jul 13:24:59 13:26:16 11° 61° (ENE) 13:27:34 435.225
PCSat 01 Jul 13:25:38 13:28:39 15° 256° (WSW) 13:31:39 145.827
YUBILEINY 01 Jul 13:33:09 13:41:52 86° 95° (E) 13:50:41 435.215
CUBEBUG 1 01 Jul 13:42:51 13:47:00 47° 286° (WNW) 13:51:09 437.445
TISAT 1 01 Jul 13:51:58 13:54:48 17° 95° (E) 13:57:37 437.305
Cosmos 2491 01 Jul 13:54:35 14:02:08 35° 274° (W) 14:09:43 435.465 / 435.565
50 SAT 01 Jul 13:55:43 13:58:47 25° 288° (WNW) 14:01:48 437.505
VELOX 1 01 Jul 13:59:40 14:03:38 34° 289° (WNW) 14:07:37 145.980
O/OREOS (USA 219) 01 Jul 14:00:09 14:03:52 26° 258° (WSW) 14:07:34 437.305
AIST 2 01 Jul 14:05:56 14:10:03 59° 59° (ENE) 14:14:08 435.215
Oscar 19 01 Jul 14:17:09 14:22:18 88° 75° (ENE) 14:27:28 437.125/150
SPROUT 01 Jul 14:18:15 14:22:23 47° 286° (WNW) 14:26:30 437.525
UKube-1 01 Jul 14:23:21 14:27:07 30° 289° (WNW) 14:30:52 .
SO-50 01 Jul 14:30:50 14:33:06 13° 107° (ESE) 14:35:22 436.795
JAS-2 01 Jul 14:33:21 14:39:59 32° 263° (W) 14:46:10 435.910
Cosmos 2504 01 Jul 14:34:01 14:42:01 68° 92° (E) 14:50:37 435.465 / 435.565
AO-7 01 Jul 14:34:25 14:39:14 17° 53° (NE) 14:44:03 29.400- 29.500
ISS 01 Jul 14:34:57 14:37:39 23° 33° (NNE) 14:40:19 145.825
BEESAT 01 Jul 14:41:21 14:42:36 11° 91° (E) 14:43:52 436.000
AISAT 01 Jul 14:42:56 14:44:34 12° 295° (WNW) 14:46:12 437.250
ITUPSAT 1 01 Jul 14:44:12 14:45:54 12° 92° (E) 14:47:35 437.325
ITAMSAT 1 01 Jul 14:47:56 14:52:06 25° 67° (ENE) 14:56:19 435.822/435.867
DX 1 01 Jul 14:51:00 14:52:58 13° 295° (WNW) 14:54:55 434.975-435.025
Gurwin Techsat 1B 01 Jul 15:00:07 15:05:26 85° 254° (WSW) 15:10:47 435.225
JUGNU 01 Jul 15:08:38 15:11:59 15° 172° (S) 15:15:22 437.505
TISAT 1 01 Jul 15:26:43 15:30:28 32° 288° (WNW) 15:34:14 437.305
RS-15 01 Jul 15:34:09 15:42:01 19° 335° (NNW) 15:50:08 29.354- 29.394
YUBILEINY 01 Jul 15:34:29 15:39:45 17° 294° (WNW) 15:45:04 435.215
SWISSCUBE 01 Jul 15:51:04 15:55:53 77° 103° (ESE) 16:00:38 437.505
SO-50 01 Jul 16:08:11 16:13:02 63° 301° (WNW) 16:17:53 436.795
ISS 01 Jul 16:11:11 16:14:06 31° 228° (SW) 16:17:01 145.825
KKS-1 01 Jul 16:13:29 16:14:54 11° 92° (E) 16:16:20 437.445
BEESAT 01 Jul 16:16:01 16:20:45 64° 286° (WNW) 16:25:28 436.000
ITUPSAT 1 01 Jul 16:19:20 16:24:03 60° 286° (WNW) 16:28:46 437.325
AO-7 01 Jul 16:22:25 16:30:45 83° 71° (ENE) 16:39:08 29.400- 29.500
ITAMSAT 1 01 Jul 16:26:39 16:31:22 34° 262° (W) 16:36:07 435.822/435.867
MOZHAYETS 4 01 Jul 16:26:42 16:29:38 16° 93° (E) 16:32:31
Cosmos 2504 01 Jul 16:29:59 16:36:09 23° 292° (WNW) 16:42:37 435.465 / 435.565
SRMSAT 01 Jul 16:30:33 16:32:55 12° 168° (SSE) 16:35:15 437.500
HORYU 2 01 Jul 16:33:32 16:35:47 14° 65° (ENE) 16:38:01 437.375
JUGNU 01 Jul 16:56:31 17:00:16 17° 183° (S) 17:04:01 437.505
AIST 1 01 Jul 17:14:01 17:18:07 43° 93° (E) 17:22:12
SWISSCUBE 01 Jul 17:32:38 17:32:58 10° 298° (WNW) 17:33:17 437.505
GONETS M04 01 Jul 17:38:44 17:44:29 20° 81° (E) 17:50:12
NOAA 18 01 Jul 17:42:58 17:45:55 15° 62° (ENE) 17:48:52 137.9125
KKS-1 01 Jul 17:47:24 17:51:45 54° 286° (WNW) 17:56:05 437.445
CUTE-I 01 Jul 17:53:45 17:56:58 16° 64° (ENE) 18:00:12 437.470
RS-15 01 Jul 17:55:08 18:01:45 16° 13° (NNE) 18:08:25 29.354- 29.394
MOZHAYETS 4 01 Jul 18:02:35 18:06:55 40° 287° (WNW) 18:11:13
CUBESAT XI-V 01 Jul 18:03:03 18:06:28 20° 94° (E) 18:09:51 437.345
HORYU 2 01 Jul 18:07:37 18:11:53 48° 260° (W) 18:16:12 437.375
NOAA 15 01 Jul 18:09:04 18:13:42 32° 69° (ENE) 18:18:20 137.62
STARS 01 Jul 18:10:08 18:14:30 61° 285° (WNW) 18:18:51 437.465
BRITE-PL 01 Jul 18:13:11 18:17:31 31° 72° (ENE) 18:21:35 437.365/2234.400
SRMSAT 01 Jul 18:17:34 18:21:19 17° 178° (S) 18:25:02 437.500
AO-7 01 Jul 18:19:12 18:24:16 17° 267° (W) 18:29:24 29.400- 29.500
GOMX 1 01 Jul 18:30:26 18:33:34 19° 70° (ENE) 18:36:35 467.674
JUGNU 01 Jul 18:46:19 18:48:31 12° 193° (SSW) 18:50:44 437.505
AIST 1 01 Jul 18:54:03 18:55:55 13° 287° (WNW) 18:57:47
Cubesat XI-IV 01 Jul 18:57:55 19:03:13 68° 74° (ENE) 19:08:33 437.490
Cosmos 2499 01 Jul 19:00:13 19:08:06 50° 89° (E) 19:16:28 435.465 / 435.565
DANDE 01 Jul 19:02:54 19:05:48 18° 68° (ENE) 19:08:14 436.750
LilacSat-2 01 Jul 19:06:47 19:10:32 80° 77° (ENE) 19:14:21 437.200
DOVE 4 01 Jul 19:12:53 19:16:14 23° 71° (ENE) 19:19:31 437.250
NOAA 18 01 Jul 19:20:31 19:25:56 67° 258° (WSW) 19:31:25 137.9125
CUTE-I 01 Jul 19:31:14 19:36:29 58° 259° (W) 19:41:47 437.470
GONETS M04 01 Jul 19:31:37 19:40:18 73° 278° (W) 19:49:00
CANX-2 01 Jul 19:39:14 19:40:57 12° 66° (ENE) 19:42:41 2200.000
CUBESAT XI-V 01 Jul 19:39:47 19:43:52 32° 289° (WNW) 19:47:55 437.345
CINEMA 3 01 Jul 19:44:23 19:46:22 13° 67° (ENE) 19:48:23 145.822/145.860
NOAA 15 01 Jul 19:48:58 19:53:25 27° 264° (W) 19:57:52 137.62
CUSAT 1 01 Jul 19:49:58 19:52:21 21° 270° (W) 19:54:29 437.405
HO-68 01 Jul 19:51:27 19:57:37 33° 65° (ENE) 20:03:48 435.675
BRITE-PL 01 Jul 19:51:59 19:55:57 23° 264° (W) 19:59:43 437.365/2234.400
SEEDS 01 Jul 19:56:18 19:57:46 12° 66° (ENE) 19:59:14 437.485
CUTE 1.7 + AOD 2 01 Jul 19:57:18 20:00:08 17° 68° (ENE) 20:02:57 437.475
AO-85 01 Jul 20:01:47 20:04:22 14° 107° (ESE) 20:06:57 145.980
SRMSAT 01 Jul 20:06:28 20:09:44 15° 188° (S) 20:13:00 437.500
GOMX 1 01 Jul 20:07:19 20:11:28 33° 262° (W) 20:15:23 467.674
RS-15 01 Jul 20:08:00 20:19:20 39° 46° (NE) 20:30:31 29.354- 29.394
AAUSAT CUBESAT 2 01 Jul 20:24:37 20:26:40 13° 67° (ENE) 20:28:44 437.432
Cubesat XI-IV 01 Jul 20:41:28 20:43:43 13° 269° (W) 20:45:57 437.490
DANDE 01 Jul 20:45:42 20:48:29 18° 275° (W) 20:50:49 436.750
STRAND 1 01 Jul 20:47:09 20:52:19 72° 102° (ESE) 20:57:25 437.568
DOVE 4 01 Jul 20:50:22 20:53:50 24° 264° (W) 20:57:14 437.250
CUBEBUG 2 01 Jul 20:52:47 20:56:09 24° 70° (ENE) 20:59:34 437.445
Cosmos 2499 01 Jul 20:54:08 21:01:26 32° 288° (WNW) 21:09:08 435.465 / 435.565
COMPASS 1 01 Jul 21:00:03 21:04:04 45° 74° (ENE) 21:08:06 437.405
ZACube-1 01 Jul 21:04:37 21:06:53 14° 66° (ENE) 21:09:11 437.345
Oscar 11 01 Jul 21:06:56 21:09:44 17° 68° (ENE) 21:12:33 145.826/435.025
PRISM 01 Jul 21:08:30 21:10:39 14° 94° (E) 21:12:48 437.425
CANX-2 01 Jul 21:12:10 21:16:19 50° 260° (W) 21:20:32 2200.000
AUBIESAT-1 01 Jul 21:15:10 21:17:53 24° 67° (ENE) 21:20:39 437.475
CINEMA 3 01 Jul 21:19:14 21:23:08 41° 262° (W) 21:27:05 145.822/145.860
FUNcube-1 01 Jul 21:19:16 21:22:20 20° 68° (ENE) 21:25:26 145.935
SEEDS 01 Jul 21:28:49 21:32:58 53° 260° (W) 21:37:09 437.485
CUTE 1.7 + AOD 2 01 Jul 21:31:47 21:35:40 34° 263° (W) 21:39:36 437.475
UWE-3 01 Jul 21:31:48 21:35:48 46° 74° (ENE) 21:39:55 435.000/436.395/437.385
GONETS M04 01 Jul 21:35:53 21:38:41 12° 298° (WNW) 21:41:29
HO-68 01 Jul 21:38:22 21:45:04 43° 260° (W) 21:51:51 435.675
AO-85 01 Jul 21:38:53 21:44:19 73° 300° (WNW) 21:49:37 145.980
DELFI C3 01 Jul 21:40:50 21:43:25 17° 69° (ENE) 21:45:59 145.870
M-CUBED/EXP-1 PRIME 01 Jul 21:57:11 22:00:24 56° 255° (WSW) 22:03:37 437.505
AAUSAT CUBESAT 2 01 Jul 21:57:45 22:01:45 43° 261° (W) 22:05:46 437.432
RS-15 01 Jul 22:20:24 22:32:32 65° 248° (WSW) 22:44:26 29.354- 29.394
STRAND 1 01 Jul 22:28:48 22:30:49 12° 298° (WNW) 22:32:50 437.568
CUBEBUG 2 01 Jul 22:29:21 22:32:41 23° 265° (W) 22:36:04 437.445
COMPASS 1 01 Jul 22:38:07 22:39:50 12° 268° (W) 22:41:31 437.405
ZACube-1 01 Jul 22:38:47 22:42:45 41° 262° (W) 22:46:51 437.345
Oscar 11 01 Jul 22:41:34 22:45:33 36° 262° (W) 22:49:35 145.826/435.025
PRISM 01 Jul 22:42:20 22:46:05 36° 288° (WNW) 22:49:49 437.425
AUBIESAT-1 01 Jul 22:50:49 22:52:26 13° 261° (W) 22:54:04 437.475
FUNcube-1 01 Jul 22:54:41 22:58:20 29° 264° (W) 23:02:06 145.935
TIGRISAT 01 Jul 22:55:46 22:58:46 17° 93° (E) 23:01:47 435.000
UNISAT 6 01 Jul 23:01:42 23:05:15 21° 95° (E) 23:08:47 437.425
UWE-3 01 Jul 23:10:57 23:12:32 12° 269° (W) 23:14:07 435.000/436.395/437.385
DELFI C3 01 Jul 23:14:23 23:17:59 31° 263° (W) 23:21:37 145.870
HUMSAT D 01 Jul 23:19:32 23:23:41 67° 259° (W) 23:27:55 437.325/437.525
VELOX 1 01 Jul 23:20:20 23:21:47 11° 65° (ENE) 23:23:12 145.980
AO-85 01 Jul 23:23:52 23:25:37 11° 317° (NW) 23:27:22 145.980
ANTELSAT 01 Jul 23:40:30 23:45:07 57° 100° (E) 23:49:45 437.575/2403.000
UKube-1 01 Jul 23:41:15 23:42:52 12° 65° (ENE) 23:44:28 .
YUBILEINY 01 Jul 23:47:31 23:55:33 37° 75° (ENE) 00:03:31 435.215
AISAT 01 Jul 23:58:48 00:02:45 33° 71° (ENE) 00:06:42 437.250
NANOSAT C BR1 02 Jul 00:03:55 00:05:59 13° 93° (E) 00:08:03 145.865
DX 1 02 Jul 00:05:48 00:09:32 29° 71° (ENE) 00:13:18 434.975-435.025
QB50P1 02 Jul 00:08:33 00:11:14 16° 94° (E) 00:13:55 145.935-145.965
ESTCUBE 1 02 Jul 00:09:23 00:13:54 72° 76° (ENE) 00:18:26 437.505/2401.250
POPSAT HIP 1 02 Jul 00:11:57 00:14:51 18° 94° (E) 00:17:44 437.405
DUCHIFAT 1 02 Jul 00:21:39 00:24:51 20° 95° (E) 00:28:02 145.980
QB50P2 02 Jul 00:24:38 00:28:16 27° 97° (E) 00:31:54 145.880/145.840
POLYITAN 1 02 Jul 00:27:13 00:30:55 28° 97° (E) 00:34:36 437.675
50 SAT 02 Jul 00:29:38 00:33:20 84° 75° (ENE) 00:37:05 437.505
TIGRISAT 02 Jul 00:31:11 00:35:35 41° 287° (WNW) 00:39:59 435.000
